html hit counter

Jackpot

Texas Poker Multi Jackpot System

Kini Telah hadir Jackpot SUPER ROYAL FLUSH

Kini Telah hadir Jackpot 2000 (khusus table VIP keatas).

Ikutilah global jackpot yang tersedia di system kami, dengan system jackpot terbaru dan pertama di indonesia, anda dapat membeli jackpot dengan harga 100 rupiah saja dan menangkan hadiahnya hingga puluhan juta rupiah.

Jackpot bukanlah suatu keharusan untuk dibeli, namun kami memberikan suatu fitur tambahan untuk member tercinta dari www.pokersemi.org.

Terdapat tiga pilihan harga jackpot yang bisa anda beli yaitu :100,500,1000 dan 2000(khusus table VIP Keatas) rupiah.

Hadiah dari Multi jackpot system www.pokersemi.org

  1. full house x 10 harga jackpot yang anda beli.
      (contoh:anda membeli 1000 maka:1000 X10 = 10.000)
  2. four of kind x 250 harga jackpot yang anda beli
      (contoh:anda membeli 1000 maka:1000 X250 = 250.000)
  3. Straight flush x 1200
      (contoh:anda membeli 1000 maka:1000 X1200 = 1.200.000)
  4. Royal flush x 10000 harga jackpot yang anda beli
      (contoh:anda membeli 1000 maka:1000 X10000 = 10.000.000)
  5. SUPER ROYAL FLUSH x 30000 harga jackpot yang anda beli
      (contoh:anda membeli 1000 maka:1000 X30000 = 30.000.000)

Kondisi kartu

  1. full house adalah kondisi kartu dimana kartu anda dan kartu tengah dengan total 7 kartu bisa mendapatkan nilai 5 kartu dengan kombinasi 1 tris(three of kind) dan 1 pair, contoh 3 kartu 10 dan 2 kartu 5
  2. Four of kind adalah kondisi kartu dimana kartu anda dan kartu tengah dengan total 7 kartu bisa mendapatkan nilai 5 kartu dengan kombinasi 4 kartu yang sama jumlah dan 1 kartu apapun juga contoh anda mendapatkan 4 buah kartu angka 3 dan 1 kartu apapun.
  3. Staright flush adalah kondisi kartu dimana kartu anda dan kartu tengah dengan total 7 kartu bisa mendapatkan nilai 5 kartu dengan kombinasi seri / staright dengan kembang yang sama contoh : urutan kartu dari angka 5, 6, 7, 8 , 9 10 dengan kembang yg sama misalnya as hati
  4. Royal flush adalah kondisi kartu dimana kartu anda dan kartu tengah dengan total 7 kartu bisa mendapatkan nilai 5 kartu dengan kombinasi seri / staright dengan kembang yang sama tetapi kartu tersebut haruslah dimulai dari 10. contoh 10, Queen, Jack, King dan aces dengan kembang yang sama
  5. Super Royal flush adalah kondisi kartu dimana Kedua kartu anda digabung dengan 3 kartu pertama meja haruslah royal flush. contoh kartu anda 10,Queen kembang sama dan 3 kartu pertama meja adalah Jack, King dan aces dengan kembang yang sama

Demikian adalah penjelasan dari Multi Jackpot www.pokersemi.org terima kasih dan selamat bermain salam hoki dari kami

Texas Poker Jackpot Winner

TOP SUPER ROYAL FLUSH
No.TanggalNamaPriceWin
122/07 05:32SELAMET98Super Royal flush3,000,000
222/07 04:01MABHIRSuper Royal flush6,000,000
322/07 03:37MUMU1003Super Royal flush6,000,000
422/07 03:02KINGRAJSuper Royal flush15,000,000
521/07 23:05MANGKARMANSuper Royal flush6,000,000
TOP ROYAL FLUSH
No.TanggalNamaPriceWin
122/07 09:29WINNEN16Royal flush10,000,000
222/07 09:25DM194021Royal flush10,000,000
322/07 09:18OM_ARUNGRoyal flush2,000,000
422/07 08:25BAMBAM80Royal flush5,000,000
522/07 07:58CHORIDHARoyal flush2,000,000
TOP STRAIGHT FLUSH
No.TanggalNamaPriceWin
122/07 09:38GURUJHOStraight Flush600,000
222/07 09:37PESO333Straight Flush120,000
322/07 09:37KUY4Straight Flush600,000
422/07 09:37BIERLONGStraight Flush600,000
522/07 09:35PIYO65Straight Flush240,000
LATEST JACKPOT
No.TanggalNamaPriceWin
122/07 09:39SSSTTTTTFull House5,000
222/07 09:39S4LS4499Full House2,000
322/07 09:39ASUNJR78Full House5,000
422/07 09:39EDIPQWAFull House500
522/07 09:39IDOLA777Full House10,000
622/07 09:39B0XEP514Full House1,000
722/07 09:39C117T4Full House2,000
822/07 09:39ADIB1212Full House20,000
922/07 09:39GOLF_78Full House20,000
1022/07 09:39D4N6PER07Full House10,000
1122/07 09:39POTLOT007Full House1,000
1222/07 09:39IZZAN0917Full House1,000
1322/07 09:39MAYALOKA99Full House5,000
1422/07 09:39ROM_18DEWAFull House2,000
1522/07 09:39MANJAMOEFull House10,000
1622/07 09:39RENDYBOY12Full House5,000
1722/07 09:39BANSOS94Full House1,000
1822/07 09:39ASTRDASTM8Full House20,000
1922/07 09:39KACAUXXXFull House5,000
2022/07 09:39SYAHRUL224Full House10,000
2122/07 09:39WOK99Full House10,000
2222/07 09:38SIWO212Full House5,000
2322/07 09:38GURUJHOStraight Flush600,000
2422/07 09:38BMC2008Full House2,000
2522/07 09:38WWTRUS22Full House2,000
2622/07 09:38KUNCRUT26Full House5,000
2722/07 09:38JP1927Full House10,000
2822/07 09:38DWTDODO00Full House2,000
2922/07 09:38TESANGGAL2Full House2,000
3022/07 09:38JULU456Full House2,000
3122/07 09:38KERTOJOYOFull House1,000
3222/07 09:38JHARISFull House5,000
3322/07 09:38KENGKANG88Full House1,000
3422/07 09:38JAMBRONG7Full House5,000
3522/07 09:38P3HY8762URFull House2,000
3622/07 09:38DAVIN234Full House5,000
3722/07 09:38R1CHM0NDFour Of A Kind250,000
3822/07 09:38HAPPYWEEDDFull House10,000
3922/07 09:38WEWE08Full House10,000
4022/07 09:38F3RI999Full House2,000
4122/07 09:38JULIATNAFull House2,000
4222/07 09:38FILZAPFull House1,000
4322/07 09:38MBAT66Full House5,000
4422/07 09:38IYOL44HFull House1,000
4522/07 09:38GABLEK00Full House5,000
4622/07 09:38NAGA010Full House5,000
4722/07 09:38ASORBOSFull House2,000
4822/07 09:38SARO474Full House5,000
4922/07 09:38MONEYKICKSFull House5,000
5022/07 09:38DCECDD11Full House1,000

Domino Multi Jackpot System

Ikutilah global jackpot yang tersedia di system kami, dengan system jackpot terbaru dan pertama di indonesia, anda dapat membeli jackpot dengan harga 100 rupiah saja dan menangkan hadiahnya hingga puluhan juta rupiah.

Jackpot bukanlah suatu keharusan untuk dibeli, namun kami memberikan suatu fitur tambahan untuk member tercinta dari www.pokersemi.org.

Terdapat tiga pilihan harga jackpot yang bisa anda beli yaitu :100,500 dan 1000 rupiah.

Hadiah dari Multi jackpot system www.pokersemi.org

  1. Murni Kecil x 50 harga jackpot yang anda beli.
      (contoh:anda membeli 1000 maka:1000 X 50 = 50.000)
  2. Murni Besar x 50 harga jackpot yang anda beli
      (contoh:anda membeli 1000 maka:1000 X 50 = 50.000)
  3. BALAK x 100 harga jackpot yang anda beli
      (contoh:anda membeli 1000 maka:1000 X 100 = 100.000)
  4. ENAM DEWA x 6666 harga jackpot yang anda beli
      (contoh:anda membeli 1000 maka:1000 X 6666 = 6.666.000)

Demikian adalah penjelasan dari Multi Jackpot www.pokersemi.org terima kasih dan selamat bermain salam hoki dari kami

Domino Jackpot Winner

TOP ENAM DEWA
No.TanggalNamaPriceWin
122/07 09:32DEWI_66murni enam6,666,000
222/07 04:17ON99ON99murni enam6,666,000
322/07 04:02N1KO01murni enam6,666,000
422/07 02:41BXU4HETHYImurni enam3,333,000
522/07 02:24IV4G1GS885murni enam666,600
TOP BALAK
No.TanggalNamaPriceWin
122/07 09:38GOMBUL1234balak50,000
222/07 09:35SIXDEVIL99balak100,000
322/07 09:34AMAL886balak50,000
422/07 09:34CARSAD09balak100,000
522/07 09:26REJEKI_128balak100,000
LATEST JACKPOT
No.TanggalNamaPriceWin
122/07 09:39RICHAAAAAAmurni kecil50,000
222/07 09:38GOMBUL1234balak50,000
322/07 09:37KAYUU615lucky9950,000
422/07 09:36W45K1T4murni kecil50,000
522/07 09:36FOREX0404murni kecil25,000
622/07 09:35SETVOLI99lucky9925,000
722/07 09:35SIXDEVIL99balak100,000
822/07 09:34VHY86murni besar50,000
922/07 09:34AMAL886balak50,000
1022/07 09:34CARSAD09balak100,000
1122/07 09:34SHILA17murni besar25,000
1222/07 09:34ZEERROOOmurni kecil50,000
1322/07 09:33BAMDA007murni kecil25,000
1422/07 09:33QUEN179murni besar50,000
1522/07 09:33SETIA004murni kecil5,000
1622/07 09:32DEWI_66murni enam6,666,000
1722/07 09:31SALDY777lucky9910,000
1822/07 09:27UJKSTMV3ZOmurni kecil25,000
1922/07 09:26NUKE02murni besar50,000
2022/07 09:26REJEKI_128balak100,000
2122/07 09:26MAS270lucky992,500
2222/07 09:26TEMPE444murni besar5,000
2322/07 09:26GIRAB_2murni besar25,000
2422/07 09:26T4D0012914murni kecil50,000
2522/07 09:25SHILA17balak50,000
2622/07 09:23IBRO72murni kecil50,000
2722/07 09:23L444B44murni kecil50,000
2822/07 09:22GODHOE11murni kecil25,000
2922/07 09:22DIREKTUR03balak10,000
3022/07 09:22B477U7Pmurni kecil25,000
3122/07 09:22FHSTGH62PTmurni kecil50,000
3222/07 09:22GUSARTHAlucky9925,000
3322/07 09:21DIREKTUR03murni kecil5,000
3422/07 09:20ALUMP99balak50,000
3522/07 09:19HANG26murni kecil50,000
3622/07 09:19HIDAYATHImurni besar5,000
3722/07 09:18S4TNF4VCDCmurni kecil5,000
3822/07 09:18CANP1CONbalak100,000
3922/07 09:18RIZALDY84murni kecil25,000
4022/07 09:18DZH88DTS5Hmurni besar50,000
4122/07 09:17RAGASA66lucky9950,000
4222/07 09:16SADOYO01murni besar5,000
4322/07 09:16LABOOOLL99murni kecil25,000
4422/07 09:16BONJOV1984murni besar50,000
4522/07 09:16KASJA82murni kecil25,000
4622/07 09:15OMULLANKmurni besar50,000
4722/07 09:15FAHMIQIUmurni kecil50,000
4822/07 09:15DJT4K1Mmurni kecil5,000
4922/07 09:14QUEN179murni besar50,000
5022/07 09:12SONGHOLmurni kecil25,000

Ceme Multi Jackpot System

Jackpot dilihat dari gabungan kartu pemain dengan kartu bandar. Bandar harus membeli jackpot sebanyak jumlah player yang sedang duduk. Sebagai contoh bila terdapat 3 pemain duduk bermain, dan bandar memutuskan untuk membeli jackpot Rp 1.000, maka pada periode tersebut bandar akan membeli jackpot sebanyak 3xRp1.000 = Rp3.000.

Jackpot bukanlah suatu keharusan untuk dibeli, namun kami memberikan suatu fitur tambahan untuk member tercinta dari www.pokersemi.org.

Terdapat tiga pilihan harga jackpot yang bisa anda beli yaitu :100,500 dan 1000 rupiah.

Hadiah dari Multi jackpot system www.pokersemi.org

  1. Murni Kecil x 50 harga jackpot yang anda beli.
      (contoh:anda membeli 1000 maka:1000 X 50 = 50.000)
  2. Murni Besar x 50 harga jackpot yang anda beli
      (contoh:anda membeli 1000 maka:1000 X 50 = 50.000)
  3. BALAK x 200 harga jackpot yang anda beli
      (contoh:anda membeli 1000 maka:1000 X 200 = 200.000)
  4. ENAM DEWA x 6666 harga jackpot yang anda beli
      (contoh:anda membeli 1000 maka:1000 X 6666 = 6.666.000)

Demikian adalah penjelasan dari Multi Jackpot www.pokersemi.org terima kasih dan selamat bermain salam hoki dari kami

Ceme Jackpot Winner

TOP ENAM DEWA
No.TanggalNamaPriceWin
122/07 09:09EGAN555murni enam3,333,000
222/07 09:09B0T4K21murni enam6,666,000
322/07 09:06DONGRAK08murni enam666,600
422/07 09:02SONIA06murni enam6,666,000
522/07 09:02LOYZ30murni enam666,600
TOP BALAK
No.TanggalNamaPriceWin
122/07 09:38LB882476balak200,000
222/07 09:38GAMBLESTbalak20,000
322/07 09:37ALEXSANDERbalak20,000
422/07 09:36JAYAA75balak200,000
522/07 09:36XIO_9balak200,000
LATEST JACKPOT
No.TanggalNamaPriceWin
122/07 09:39DEKIDEKImurni besar50,000
222/07 09:39CEMUS88murni kecil50,000
322/07 09:38KEMBAR166murni kecil5,000
422/07 09:38LB882476balak200,000
522/07 09:38RANIEE02murni kecil50,000
622/07 09:38KARISMA9murni kecil50,000
722/07 09:38DAWAI123murni kecil25,000
822/07 09:38SAHIDBAA18murni kecil5,000
922/07 09:38GAMBLESTbalak20,000
1022/07 09:38AL0624murni kecil25,000
1122/07 09:38FITA23murni kecil5,000
1222/07 09:38ASBAR789murni kecil25,000
1322/07 09:38TWB89murni kecil50,000
1422/07 09:38UQ9PHRWC0Cmurni kecil50,000
1522/07 09:38WOWOR878murni kecil5,000
1622/07 09:38LINGMINmurni kecil50,000
1722/07 09:38TEMPEEEEEKmurni kecil5,000
1822/07 09:38FIO11111murni besar5,000
1922/07 09:38KARTT66murni besar50,000
2022/07 09:38D14NS3T1Amurni kecil50,000
2122/07 09:38WADUDU3murni besar50,000
2222/07 09:38R14Nmurni besar25,000
2322/07 09:37DW1029murni kecil50,000
2422/07 09:37ALEXSANDERbalak20,000
2522/07 09:37RAFA147murni besar50,000
2622/07 09:37LIMITmurni besar50,000
2722/07 09:37DEKIDEKImurni kecil50,000
2822/07 09:37TEKKENOImurni kecil50,000
2922/07 09:37YQAKRIF9T5murni kecil50,000
3022/07 09:37GALATAMASPmurni kecil50,000
3122/07 09:37KITOPACAK8murni besar50,000
3222/07 09:37P1IEmurni besar25,000
3322/07 09:37JSMPNCK86murni besar50,000
3422/07 09:37RASENDR1YAmurni besar50,000
3522/07 09:37ACHER90murni kecil50,000
3622/07 09:37NYARIS12murni kecil25,000
3722/07 09:37CLOWN207murni kecil50,000
3822/07 09:37CAP79murni kecil50,000
3922/07 09:37BRIMBmurni kecil25,000
4022/07 09:36YAPA284murni kecil25,000
4122/07 09:36ASEL335murni kecil50,000
4222/07 09:36BATAKTOLmurni kecil50,000
4322/07 09:36JAYAA75balak200,000
4422/07 09:36XIO_9balak200,000
4522/07 09:36GOLETDUITmurni kecil25,000
4622/07 09:36TEKKENOImurni kecil50,000
4722/07 09:36YQAKRIF9T5murni kecil50,000
4822/07 09:35ITEL_ASUmurni kecil25,000
4922/07 09:35KIPEKIPE99murni kecil50,000
5022/07 09:35PROPOUN330murni kecil50,000